User: anonymous   Login
Location: Chiroubles
(46.1812°N, 4.6660°E)
Time: 06:14:55
(UTC+00:00)
Language:

Transit 4A - Orbit

View from above orbital plane
View from above orbital plane
View from above satellite
View from above satellite

Ground track
Ground track

The orbit data is extracted from the following two-line orbital elements,

1   116U 61015A   20331.80631443 -.00000029  00000-0  36933-4 0  9999
2   116  66.8080 171.3204 0082068 256.1807 103.0130 13.91779059 14890
Epoch (UTC): 26 November 2020 19:21:05
Eccentricity: 0.0082068
inclination: 66.8080°
perigee height: 862 km
apogee height: 982 km
right ascension of ascending node: 171.3204°
argument of perigee: 256.1807°
revolutions per day: 13.91779059
mean anomaly at epoch: 103.0130°
orbit number at epoch: 1489

The dashed part of the orbit path shows where the satellite is in the earth's shadow,  

DLR